User: anonymous   Login
Location: Unspecified
(0.0000°N, 0.0000°E)
Time: 12:55:57
(UTC+00:00)
Language:

IBEX - Orbit

View from above orbital plane
View from above orbital plane
View from above satellite
View from above satellite

Ground track
Ground track

The orbit data is extracted from the following two-line orbital elements,

1 33401U 08051A   17144.87446521 -.00001793 +00000-0 +00000-0 0  9990
2 33401 025.5633 094.2719 6379406 021.7400 356.8635 00.11339200003635
Epoch (UTC): 24 May 2017 20:59:13
Eccentricity: 0.6379406
inclination: 25.5633°
perigee height: 58903 km
apogee height: 288951 km
right ascension of ascending node: 94.2719°
argument of perigee: 21.7400°
revolutions per day: 0.11339200
mean anomaly at epoch: 356.8635°
orbit number at epoch: 363

The dashed part of the orbit path shows where the satellite is in the earth's shadow,  

DLR